Location: ??????
(38.0131°N, 23.7723°E)
Time: 05:52:48
(UTC+00:00)

Cosmos 1455 Rocket - Pass Details

Date: 17 October 2021
Orbit: 604 x 630 km, 82.5° (Epoch: 28 November)

Event Time Altitude Azimuth Distance (km) Brightness Sun altitude
Rises 16:44:22 0° 178° (S) 2,871 6.5 -12.5°
Reaches altitude 10° 16:46:35 10° 175° (S) 1,974 5.6 -13.0°
Maximum altitude 16:50:54 64° 94° (E) 692 3.0 -13.8°
Drops below altitude 10° 16:55:18 10° 14° (NNE) 2,004 5.5 -14.7°
Sets 16:57:34 0° 11° (N) 2,919 6.4 -15.1°
